This is the latest recevied weather packets stored in our database for station/object N5SRF. If no packets are shown the sender has not sent any weather packets the latest 10 day(s).
| Time | Temp. | Humidity | Pressure | Rain* | Wind** | Luminosity | Snow |
|---|---|---|---|---|---|---|---|
| 1777832800 | 26.67° C | 43% | 1025.6 hPa | 0 mm | - | 799 W/m² | - |
| 1777832498 | 27.22° C | 41% | 1025.6 hPa | 0 mm | - | 788 W/m² | - |
| 1777832189 | 26.67° C | 44% | 1025.7 hPa | 0 mm | - | 788 W/m² | - |
| 1777831886 | 26.11° C | 44% | 1025.7 hPa | 0 mm | - | 788 W/m² | - |
| 1777831583 | 25.56° C | 40% | 1025.9 hPa | 0 mm | - | 784 W/m² | - |
| 1777831281 | 26.11° C | 43% | 1025.8 hPa | 0 mm | - | 781 W/m² | - |
| 1777830977 | 26.11° C | 42% | 1026 hPa | 0 mm | - | 786 W/m² | - |
| 1777830674 | 26.11° C | 41% | 1026.1 hPa | 0 mm | - | 777 W/m² | - |
| 1777830371 | 25.56° C | 44% | 1026.3 hPa | 0 mm | - | 773 W/m² | - |
| 1777830069 | 26.11° C | 46% | 1026.4 hPa | 0 mm | - | 771 W/m² | - |
| 1777829763 | 26.11° C | 43% | 1026.5 hPa | 0 mm | - | 769 W/m² | - |
| 1777829460 | 26.67° C | 41% | 1026.5 hPa | 0 mm | - | 764 W/m² | - |
| 1777829157 | 26.67° C | 40% | 1026.6 hPa | 0 mm | - | 760 W/m² | - |
| 1777828855 | 26.11° C | 43% | 1026.7 hPa | 0 mm | - | 757 W/m² | - |
| 1777828550 | 26.11° C | 42% | 1026.5 hPa | 0 mm | - | 751 W/m² | - |
| 1777828248 | 26.11° C | 41% | 1026.7 hPa | 0 mm | - | 746 W/m² | - |
| 1777827944 | 26.67° C | 41% | 1026.5 hPa | 0 mm | - | 740 W/m² | - |
| 1777827642 | 26.11° C | 46% | 1026.8 hPa | 0 mm | - | 735 W/m² | - |
| 1777827339 | 25.56° C | 44% | 1026.9 hPa | 0 mm | - | 729 W/m² | - |
| 1777827035 | 25° C | 47% | 1026.9 hPa | 0 mm | - | 722 W/m² | - |
| 1777826732 | 24.44° C | 46% | 1026.8 hPa | 0 mm | - | 717 W/m² | - |
| 1777826429 | 25° C | 45% | 1026.9 hPa | 0 mm | - | 708 W/m² | - |
| 1777826126 | 25.56° C | 45% | 1026.9 hPa | 0 mm | - | 701 W/m² | - |
| 1777825823 | 25° C | 49% | 1027.1 hPa | 0 mm | - | 691 W/m² | - |
| 1777825520 | 25° C | 47% | 1027 hPa | 0 mm | - | 687 W/m² | - |
* Rain latest hour (hover to see other rain measurements)
** Current wind speed in m/s (hover to see current wind gust speed)